timestamp,surface_pressure_avg,surface_temp_avg,battery_voltage,lat,long
2019-08-27 00:00:00+00:00,252.5897,18.0,12.97,47.84626,-54.09684
2019-08-27 00:10:00+00:00,239.2164,18.0,12.89,47.84626,-54.09684
2019-08-27 00:20:00+00:00,230.4848,18.0,12.97,47.84626,-54.09684
2019-08-27 00:30:00+00:00,230.683,18.0,12.97,47.84626,-54.09684
2019-08-27 00:40:00+00:00,225.1364,18.0,12.97,47.84626,-54.09684
2019-08-27 00:50:00+00:00,218.5115,18.0,12.97,47.84626,-54.09684
2019-08-27 01:00:00+00:00,219.3331,18.0,12.97,47.84626,-54.09684
2019-08-27 01:10:00+00:00,219.3431,18.0,12.89,47.84626,-54.09684
2019-08-27 01:20:00+00:00,212.7415,18.0,12.97,47.84626,-54.09684
2019-08-27 01:30:00+00:00,210.3598,18.0,12.97,47.84626,-54.09684
2019-08-27 01:40:00+00:00,210.4715,18.0,12.97,47.84626,-54.09684
2019-08-27 01:50:00+00:00,207.1248,18.0,12.97,47.84626,-54.09684
2019-08-27 02:00:00+00:00,201.3914,18.0,12.89,47.84626,-54.09684
2019-08-27 02:10:00+00:00,196.7547,18.0,12.81,47.84626,-54.09684
2019-08-27 02:20:00+00:00,198.3431,18.0,12.89,47.84626,-54.09684
2019-08-27 02:30:00+00:00,201.2148,18.0,12.89,47.84626,-54.09684
2019-08-27 02:40:00+00:00,200.2814,18.0,12.97,47.84626,-54.09684
2019-08-27 02:50:00+00:00,199.9398,18.01,12.97,47.84626,-54.09684
2019-08-27 03:00:00+00:00,203.9115,18.05,12.89,47.84626,-54.09684
2019-08-27 03:10:00+00:00,206.6931,18.08,12.81,47.84626,-54.09684
2019-08-27 03:20:00+00:00,204.6364,18.08,12.89,47.84626,-54.09684
2019-08-27 03:30:00+00:00,203.7098,18.09,12.89,47.84626,-54.09684
2019-08-27 03:40:00+00:00,210.1498,18.09,12.97,47.84626,-54.09684
2019-08-27 03:50:00+00:00,213.7848,18.1,12.97,47.84626,-54.09684
2019-08-27 04:00:00+00:00,211.7264,18.1,12.89,47.84626,-54.09684
2019-08-27 04:10:00+00:00,215.0631,18.09,12.81,47.84626,-54.09684
2019-08-27 04:20:00+00:00,220.4464,18.09,12.89,47.84626,-54.09684
2019-08-27 04:30:00+00:00,222.5097,18.09,12.89,47.84626,-54.09684
2019-08-27 04:40:00+00:00,226.0681,18.08,12.89,47.84626,-54.09684
2019-08-27 04:50:00+00:00,230.8631,18.08,12.97,47.84626,-54.09684
2019-08-27 05:00:00+00:00,234.0797,18.08,12.89,47.84626,-54.09684
2019-08-27 05:10:00+00:00,237.088,18.07,12.81,47.84626,-54.09684
2019-08-27 05:20:00+00:00,242.0814,18.06,12.89,47.84626,-54.09684
2019-08-27 05:30:00+00:00,247.4631,18.04,12.89,47.84626,-54.09684
2019-08-27 05:40:00+00:00,252.3265,18.04,12.89,47.84626,-54.09684
2019-08-27 05:50:00+00:00,259.6431,18.03,12.89,47.84626,-54.09684
2019-08-27 06:00:00+00:00,266.5381,18.02,12.81,47.84626,-54.09684
2019-08-27 06:10:00+00:00,271.7798,18.01,12.81,47.84626,-54.09684
2019-08-27 06:20:00+00:00,274.9415,18.01,12.89,47.84626,-54.09684
2019-08-27 06:30:00+00:00,279.1464,18.0,12.89,47.84626,-54.09684
2019-08-27 06:40:00+00:00,284.1997,18.0,12.89,47.84626,-54.09684
2019-08-27 06:50:00+00:00,289.9464,18.0,12.89,47.84626,-54.09684
2019-08-27 07:00:00+00:00,294.883,18.0,12.81,47.84626,-54.09684
2019-08-27 07:10:00+00:00,299.258,17.99,12.81,47.84626,-54.09684
2019-08-27 07:20:00+00:00,300.108,17.98,12.89,47.84626,-54.09684
2019-08-27 07:30:00+00:00,300.6362,17.9,12.89,47.84626,-54.09684
2019-08-27 07:40:00+00:00,303.218,17.9,12.89,47.84626,-54.09684
2019-08-27 07:50:00+00:00,306.2729,17.9,12.89,47.84626,-54.09684
2019-08-27 08:00:00+00:00,305.3912,17.9,12.81,47.84626,-54.09684
2019-08-27 08:10:00+00:00,307.5114,17.9,12.73,47.84626,-54.09684
2019-08-27 08:20:00+00:00,312.0681,17.93,12.89,47.84626,-54.09684
2019-08-27 08:30:00+00:00,313.7231,17.95,12.89,47.84626,-54.09684
2019-08-27 08:40:00+00:00,310.5164,17.9,12.89,47.84626,-54.09684
2019-08-27 08:50:00+00:00,311.4663,17.81,12.89,47.84626,-54.09684
2019-08-27 09:00:00+00:00,313.8765,17.9,12.81,47.84626,-54.09684
2019-08-27 09:10:00+00:00,314.138,17.9,12.73,47.84626,-54.09684
2019-08-27 09:20:00+00:00,308.5313,17.8,12.89,47.84626,-54.09684
2019-08-27 09:30:00+00:00,310.4949,17.86,12.89,47.84626,-54.09684
2019-08-27 09:40:00+00:00,313.6696,17.97,12.97,47.84626,-54.09684
2019-08-27 09:50:00+00:00,308.2513,17.99,12.97,47.84626,-54.09684
2019-08-27 10:00:00+00:00,302.0914,17.88,12.97,47.84626,-54.09684
2019-08-27 10:10:00+00:00,301.1013,17.9,12.81,47.84626,-54.09684
2019-08-27 10:20:00+00:00,297.608,17.9,12.89,47.84626,-54.09684
2019-08-27 10:30:00+00:00,288.1597,17.9,12.97,47.84626,-54.09684
2019-08-27 10:40:00+00:00,287.6181,17.88,12.97,47.84626,-54.09684
2019-08-27 10:50:00+00:00,286.7297,17.9,13.05,47.84626,-54.09684
2019-08-27 11:00:00+00:00,276.7714,17.98,13.05,47.84626,-54.09684
2019-08-27 11:10:00+00:00,266.3715,17.9,13.05,47.84626,-54.09684
2019-08-27 11:20:00+00:00,265.3331,17.9,13.37,47.84626,-54.09684
2019-08-27 11:30:00+00:00,258.8164,17.9,13.37,47.84626,-54.09684
2019-08-27 11:40:00+00:00,246.8698,17.91,13.37,47.84626,-54.09684
2019-08-27 11:50:00+00:00,244.2465,17.8,13.37,47.84626,-54.09684
2019-08-27 12:00:00+00:00,245.2347,17.7,13.29,47.84626,-54.09684
2019-08-27 12:10:00+00:00,241.0614,17.69,13.29,47.84626,-54.09684
2019-08-27 12:20:00+00:00,234.9615,17.66,13.37,47.84626,-54.09684
2019-08-27 12:30:00+00:00,234.0814,17.66,13.44,47.84626,-54.09684
2019-08-27 12:40:00+00:00,231.3414,17.68,13.68,47.84626,-54.09684
2019-08-27 12:50:00+00:00,222.7664,17.7,13.68,47.84626,-54.09684
2019-08-27 13:00:00+00:00,218.3231,17.7,13.6,47.84626,-54.09684
2019-08-27 13:10:00+00:00,222.3748,17.7,13.53,47.84626,-54.09684
2019-08-27 13:20:00+00:00,220.8981,17.7,13.6,47.84626,-54.09684
2019-08-27 13:30:00+00:00,215.1531,17.7,13.6,47.84626,-54.09684
2019-08-27 13:40:00+00:00,215.7098,17.7,13.6,47.84626,-54.09684
2019-08-27 13:50:00+00:00,219.0431,17.7,13.6,47.84626,-54.09684
2019-08-27 14:00:00+00:00,213.2631,17.7,13.53,47.84626,-54.09684
2019-08-27 14:10:00+00:00,206.9265,17.7,13.53,47.84626,-54.09684
2019-08-27 14:20:00+00:00,210.5647,17.7,13.68,47.84626,-54.09684
2019-08-27 14:30:00+00:00,210.3098,17.7,13.68,47.84626,-54.09684
2019-08-27 14:40:00+00:00,204.3715,17.7,13.68,47.84626,-54.09684
2019-08-27 14:50:00+00:00,204.5748,17.7,13.68,47.84626,-54.09684
2019-08-27 15:00:00+00:00,208.3848,17.7,13.6,47.84626,-54.09684
2019-08-27 15:10:00+00:00,209.8765,17.78,13.44,47.84626,-54.09684
2019-08-27 15:20:00+00:00,212.5298,17.8,13.44,47.84626,-54.09684
2019-08-27 15:30:00+00:00,214.1914,17.8,13.53,47.84626,-54.09684
2019-08-27 15:40:00+00:00,215.6998,17.83,13.6,47.84626,-54.09684
2019-08-27 15:50:00+00:00,217.9581,17.86,13.6,47.84626,-54.09684
2019-08-27 16:00:00+00:00,219.6647,17.86,13.6,47.84626,-54.09684
2019-08-27 16:10:00+00:00,220.5698,17.88,13.44,47.84626,-54.09684
2019-08-27 16:20:00+00:00,221.548,17.9,13.6,47.84626,-54.09684
2019-08-27 16:30:00+00:00,225.7264,17.89,13.68,47.84626,-54.09684
2019-08-27 16:40:00+00:00,229.4015,17.9,13.68,47.84626,-54.09684
2019-08-27 16:50:00+00:00,232.6231,17.9,13.76,47.84626,-54.09684
2019-08-27 17:00:00+00:00,236.1298,17.9,13.68,47.84626,-54.09684
2019-08-27 17:10:00+00:00,243.2014,17.9,13.68,47.84626,-54.09684
2019-08-27 17:20:00+00:00,246.5847,17.9,13.76,47.84626,-54.09684
2019-08-27 17:30:00+00:00,247.0997,17.9,13.84,47.84626,-54.09684
2019-08-27 17:40:00+00:00,254.1364,17.9,13.92,47.84626,-54.09684
2019-08-27 17:50:00+00:00,266.3048,17.9,14.0,47.84626,-54.09684
2019-08-27 18:00:00+00:00,271.188,17.9,14.0,47.84626,-54.09684
2019-08-27 18:10:00+00:00,271.1614,17.9,13.92,47.84626,-54.09684
2019-08-27 18:20:00+00:00,278.3881,17.9,14.0,47.84626,-54.09684
2019-08-27 18:30:00+00:00,290.323,17.9,14.08,47.84626,-54.09684
2019-08-27 18:40:00+00:00,294.9813,17.9,14.08,47.84626,-54.09684
2019-08-27 18:50:00+00:00,300.158,17.91,14.08,47.84626,-54.09684
2019-08-27 19:00:00+00:00,308.5781,17.94,14.0,47.84626,-54.09684
2019-08-27 19:10:00+00:00,315.4714,17.96,13.84,47.84626,-54.09684
2019-08-27 19:20:00+00:00,317.7347,17.97,13.84,47.84626,-54.09684
2019-08-27 19:30:00+00:00,322.4263,18.0,13.84,47.84626,-54.09684
2019-08-27 19:40:00+00:00,328.5746,18.0,13.92,47.84626,-54.09684
2019-08-27 19:50:00+00:00,333.078,18.0,13.84,47.84626,-54.09684
2019-08-27 20:00:00+00:00,335.3629,18.0,13.84,47.84626,-54.09684
2019-08-27 20:10:00+00:00,338.7913,18.02,13.68,47.84626,-54.09684
2019-08-27 20:20:00+00:00,340.3146,18.05,13.68,47.84626,-54.09684
2019-08-27 20:30:00+00:00,341.468,18.05,13.68,47.84626,-54.09684
2019-08-27 20:40:00+00:00,344.3629,18.05,13.76,47.84626,-54.09684
2019-08-27 20:50:00+00:00,345.1812,18.06,13.84,47.84626,-54.09684
2019-08-27 21:00:00+00:00,343.4312,18.06,13.68,47.84626,-54.09684
2019-08-27 21:10:00+00:00,345.503,18.07,13.6,47.84626,-54.09684
2019-08-27 21:20:00+00:00,348.4163,18.08,13.68,47.84626,-54.09684
2019-08-27 21:30:00+00:00,348.838,18.08,13.6,47.84626,-54.09684
2019-08-27 21:40:00+00:00,348.4513,18.09,13.6,47.84626,-54.09684
2019-08-27 21:50:00+00:00,350.9263,18.1,13.53,47.84626,-54.09684
2019-08-27 22:00:00+00:00,349.8163,18.1,13.44,47.84626,-54.09684
2019-08-27 22:10:00+00:00,346.3947,18.1,13.29,47.84626,-54.09684
2019-08-27 22:20:00+00:00,343.9213,18.1,13.29,47.84626,-54.09684
2019-08-27 22:30:00+00:00,340.288,18.1,13.21,47.84626,-54.09684
2019-08-27 22:40:00+00:00,335.4446,18.1,13.21,47.84626,-54.09684
2019-08-27 22:50:00+00:00,332.083,18.1,13.21,47.84626,-54.09684
2019-08-27 23:00:00+00:00,328.323,18.1,13.05,47.84626,-54.09684
2019-08-27 23:10:00+00:00,323.7763,18.1,12.97,47.84626,-54.09684
2019-08-27 23:20:00+00:00,316.6946,18.1,12.97,47.84626,-54.09684
2019-08-27 23:30:00+00:00,310.4663,18.1,12.97,47.84626,-54.09684
2019-08-27 23:40:00+00:00,305.3413,18.1,13.05,47.84626,-54.09684
2019-08-27 23:50:00+00:00,298.6797,18.1,13.05,47.84626,-54.09684
